Lihue, HI

6:19 AM HST on February 25, 2018 (GMT -1000)
Lihue

Weather History for PHLI - February, 2013

Change the Weather History Date:

Tuesday, February 5, 2013

  Actual Average Record
Temperature  
Mean Temperature 72 °F 72 °F  
Max Temperature 76 °F 78 °F 84 °F (1978)
Min Temperature 67 °F 65 °F 56 °F (1986)
Cooling Degree Days 7 7  
Month to date cooling degree days 36 35  
Year to date cooling degree days 229 244  
Growing Degree Days 22 (Base 50)    
Moisture  
Dew Point 63 °F    
Average Humidity 78    
Maximum Humidity 87    
Minimum Humidity 68    
Precipitation  
Precipitation 0.04 in 0.11 in 2.90 in (1950)
Month to date precipitation 0.04 0.58  
Year to date precipitation 5.92 4.33  
Snow  
Snow 0.00 in - - ()
Month to date snowfall 0.0  
Since 1 July snowfall 0.0  
Snow Depth 0.00 in    
Sea Level Pressure  
Sea Level Pressure 30.12 in    
Wind  
Wind Speed 17 mph (NE)    
Max Wind Speed 26 mph    
Max Gust Speed 32 mph    
Visibility 9 miles    
Events Rain    
T = Trace of Precipitation, MM = Missing Value Source: NWS Daily Summary

Daily Weather History Graph

Daily Weather History Graph

Search for Another Location

Airport or City:

Trip Planner

Search our weather history database for the weather conditions in past years. The results will help you decide how hot, cold, wet, or windy it might be!

Date:

Astronomy

Feb. 05, 2013 Rise Set
Actual Time 7:13 AM HST 6:29 PM HST
Civil Twilight 6:50 AM HST 6:52 PM HST
Nautical Twilight 6:24 AM HST 7:19 PM HST
Astronomical Twilight 5:57 AM HST 7:45 PM HST
Moon 2:55 AM HST (2/5) 2:11 PM HST (2/5)
Length of Visible Light 12h 01m
Length of Day
11h 15m
Waning Crescent, 24% of the Moon is Illuminated
Feb 5
Waning Crescent
Feb 9
New
Feb 17
First Quarter
Feb 25
Full
Mar 4
Last Quarter

Hourly Weather History & Observations

Time (HST) Temp. Dew Point Humidity Pressure Visibility Wind Dir Wind Speed Gust Speed Precip Events Conditions
12:53 AM 71.1 °F 63.0 °F 75% 30.14 in 9.0 mi ENE 21.9 mph 28.8 mph 0.00 in Rain Light Rain
1:27 AM 71.6 °F 64.4 °F 78% 30.14 in 6.0 mi East 18.4 mph 27.6 mph 0.01 in Rain Light Rain
1:35 AM 71.6 °F 64.4 °F 78% 30.13 in 10.0 mi ENE 19.6 mph 24.2 mph 0.01 in   Overcast
1:53 AM 70.7 °F 64.0 °F 79% 30.13 in 6.0 mi ENE 15.0 mph - 0.01 in Rain Light Rain
2:53 AM 68.9 °F 63.0 °F 81% 30.10 in 10.0 mi East 20.7 mph 26.5 mph 0.00 in   Overcast
3:17 AM 68.0 °F 64.4 °F 88% 30.11 in 5.0 mi ENE 18.4 mph 26.5 mph 0.01 in Rain Light Rain
3:53 AM 68.5 °F 64.0 °F 85% 30.10 in 10.0 mi ENE 18.4 mph - 0.01 in   Overcast
4:53 AM 69.3 °F 63.0 °F 80% 30.09 in 10.0 mi ENE 19.6 mph 25.3 mph 0.00 in   Partly Cloudy
5:53 AM 69.8 °F 62.1 °F 76% 30.09 in 10.0 mi NE 17.3 mph 25.3 mph N/A   Partly Cloudy
6:53 AM 69.8 °F 62.1 °F 76% 30.11 in 10.0 mi ENE 17.3 mph - N/A   Mostly Cloudy
7:53 AM 68.0 °F 62.8 °F 83% 30.12 in 4.0 mi ENE 13.8 mph 28.8 mph 0.01 in Rain Light Rain
8:53 AM 69.8 °F 63.0 °F 79% 30.13 in 10.0 mi NE 20.7 mph 28.8 mph 0.01 in   Overcast
9:48 AM 69.8 °F 62.6 °F 78% 30.16 in 4.0 mi ENE 24.2 mph 31.1 mph 0.00 in Rain Light Rain
9:53 AM 69.8 °F 63.0 °F 79% 30.16 in 9.0 mi ENE 25.3 mph 31.1 mph 0.00 in   Overcast
10:07 AM 68.0 °F 62.6 °F 83% 30.17 in 3.0 mi ENE 21.9 mph 28.8 mph 0.00 in Rain Light Rain
10:15 AM 68.0 °F 62.6 °F 83% 30.17 in 10.0 mi East 23.0 mph 27.6 mph 0.00 in Rain Light Rain
10:29 AM 68.0 °F 62.6 °F 83% 30.16 in 10.0 mi East 10.4 mph - 0.00 in   Overcast
10:53 AM 68.0 °F 63.0 °F 84% 30.15 in 10.0 mi ENE 15.0 mph - 0.00 in   Overcast
11:53 AM 73.4 °F 64.9 °F 75% 30.13 in 10.0 mi ENE 18.4 mph - N/A   Clear
12:04 PM 75.2 °F 64.4 °F 69% 30.13 in 10.0 mi ENE 19.6 mph 25.3 mph N/A   Mostly Cloudy
12:30 PM 71.6 °F 62.6 °F 73% 30.13 in 10.0 mi NE 24.2 mph - N/A   Overcast
12:53 PM 72.0 °F 62.1 °F 71% 30.11 in 10.0 mi North 15.0 mph - N/A   Overcast
1:53 PM 73.9 °F 64.0 °F 71% 30.09 in 10.0 mi NNE 15.0 mph - 0.00 in   Overcast
2:02 PM 73.4 °F 62.6 °F 69% 30.09 in 10.0 mi NE 17.3 mph - N/A   Overcast
2:53 PM 71.6 °F 64.0 °F 77% 30.08 in 10.0 mi NNE 12.7 mph - 0.00 in   Mostly Cloudy
3:53 PM 73.4 °F 64.0 °F 72% 30.06 in 10.0 mi ENE 13.8 mph 21.9 mph N/A   Clear
4:53 PM 71.1 °F 61.0 °F 70% 30.07 in 10.0 mi ENE 19.6 mph - N/A   Overcast
5:53 PM 69.1 °F 59.0 °F 70% 30.09 in 10.0 mi NNE 13.8 mph - N/A   Overcast
6:53 PM 69.1 °F 61.0 °F 75% 30.10 in 10.0 mi NNE 13.8 mph 18.4 mph N/A   Mostly Cloudy
7:53 PM 70.0 °F 62.1 °F 76% 30.11 in 10.0 mi NE 15.0 mph - N/A   Clear
8:53 PM 70.0 °F 63.0 °F 78% 30.12 in 10.0 mi NE 16.1 mph - N/A   Scattered Clouds
9:16 PM 71.6 °F 62.6 °F 73% 30.13 in 10.0 mi NE 16.1 mph - N/A   Mostly Cloudy
9:41 PM 71.6 °F 60.8 °F 69% 30.14 in 10.0 mi NE 15.0 mph - N/A   Overcast
9:53 PM 71.1 °F 61.0 °F 70% 30.13 in 10.0 mi NE 13.8 mph - N/A   Overcast
10:36 PM 71.6 °F 60.8 °F 69% 30.14 in 10.0 mi ENE 16.1 mph - N/A   Mostly Cloudy
10:43 PM 71.6 °F 62.6 °F 73% 30.14 in 10.0 mi ENE 16.1 mph - N/A   Mostly Cloudy
10:51 PM 71.6 °F 60.8 °F 69% 30.14 in 10.0 mi ENE 17.3 mph - N/A   Mostly Cloudy
10:53 PM 71.1 °F 61.0 °F 70% 30.13 in 10.0 mi ENE 18.4 mph - N/A   Mostly Cloudy
11:06 PM 71.6 °F 60.8 °F 69% 30.14 in 10.0 mi NE 17.3 mph - N/A   Mostly Cloudy
11:32 PM 71.6 °F 60.8 °F 69% 30.13 in 10.0 mi ENE 19.6 mph - N/A   Mostly Cloudy
11:53 PM 71.1 °F 62.1 °F 73% 30.12 in 10.0 mi ENE 15.0 mph - N/A   Scattered Clouds